Time,TemperatureF,DewpointF,PressureIn,WindDirection,WindDirectionDegrees,WindSpeedMPH,WindSpeedGustMPH,Humidity,HourlyPrecipIn,Conditions,Clouds,dailyrainin,SoftwareType,DateUTC
2013-01-14 00:00:00,15.9,11.0,30.31,SW,229,0.0,-999.0,82,-99.99,,,0.00,weatherlink.com 1.10,2013-01-14 06:00:00,
2013-01-14 00:16:00,15.7,11.0,30.32,WNW,292,0.0,-999.0,82,-99.99,,,0.00,weatherlink.com 1.10,2013-01-14 06:16:00,
2013-01-14 00:31:00,15.7,11.0,30.32,WNW,288,0.0,-999.0,82,-99.99,,,0.00,weatherlink.com 1.10,2013-01-14 06:31:00,
2013-01-14 00:46:00,15.6,11.0,30.33,WNW,301,0.0,-999.0,82,-99.99,,,0.00,weatherlink.com 1.10,2013-01-14 06:46:00,
2013-01-14 01:01:00,15.4,11.0,30.34,NW,312,0.0,-999.0,81,-99.99,,,0.00,weatherlink.com 1.10,2013-01-14 07:01:00,
2013-01-14 01:15:00,15.3,11.0,30.35,NW,315,0.0,-999.0,82,-99.99,,,0.00,weatherlink.com 1.10,2013-01-14 07:15:00,
2013-01-14 01:31:00,15.2,11.0,30.36,NW,310,0.0,-999.0,82,-99.99,,,0.00,weatherlink.com 1.10,2013-01-14 07:31:00,
2013-01-14 01:46:00,15.1,11.0,30.36,WNW,293,0.0,-999.0,82,-99.99,,,0.00,weatherlink.com 1.10,2013-01-14 07:46:00,
2013-01-14 02:16:00,15.2,11.0,30.36,WNW,296,0.0,-999.0,82,-99.99,,,0.00,weatherlink.com 1.10,2013-01-14 08:16:00,
2013-01-14 02:31:00,15.2,11.0,30.37,WNW,283,0.0,-999.0,82,-99.99,,,0.00,weatherlink.com 1.10,2013-01-14 08:31:00,
2013-01-14 02:46:00,15.1,11.0,30.38,WNW,288,0.0,-999.0,82,-99.99,,,0.00,weatherlink.com 1.10,2013-01-14 08:46:00,
2013-01-14 03:02:00,15.0,10.0,30.39,WNW,288,0.0,-999.0,82,-99.99,,,0.00,weatherlink.com 1.10,2013-01-14 09:02:00,
2013-01-14 03:16:00,15.0,10.0,30.39,NNW,331,0.0,-999.0,82,-99.99,,,0.00,weatherlink.com 1.10,2013-01-14 09:16:00,
2013-01-14 03:31:00,14.9,10.0,30.39,WNW,294,0.0,-999.0,82,-99.99,,,0.00,weatherlink.com 1.10,2013-01-14 09:31:00,
2013-01-14 03:46:00,14.9,10.0,30.38,NW,306,0.0,-999.0,82,-99.99,,,0.00,weatherlink.com 1.10,2013-01-14 09:46:00,
2013-01-14 04:01:00,14.8,11.0,30.39,NW,309,0.0,-999.0,83,-99.99,,,0.00,weatherlink.com 1.10,2013-01-14 10:01:00,
2013-01-14 04:15:00,14.8,11.0,30.38,NNW,330,0.0,-999.0,83,-99.99,,,0.00,weatherlink.com 1.10,2013-01-14 10:15:00,
2013-01-14 04:30:00,14.7,10.0,30.39,WNW,285,0.0,-999.0,82,-99.99,,,0.00,weatherlink.com 1.10,2013-01-14 10:30:00,
2013-01-14 04:45:00,14.6,10.0,30.39,NW,307,0.0,-999.0,82,-99.99,,,0.00,weatherlink.com 1.10,2013-01-14 10:45:00,
2013-01-14 05:02:00,14.6,10.0,30.39,NW,310,0.0,-999.0,82,-99.99,,,0.00,weatherlink.com 1.10,2013-01-14 11:02:00,
2013-01-14 05:16:00,14.5,10.0,30.40,WNW,290,0.0,-999.0,83,-99.99,,,0.00,weatherlink.com 1.10,2013-01-14 11:16:00,
2013-01-14 05:31:00,14.4,10.0,30.41,NW,325,0.0,-999.0,83,-99.99,,,0.00,weatherlink.com 1.10,2013-01-14 11:31:00,
2013-01-14 05:46:00,14.4,10.0,30.41,NW,320,0.0,-999.0,83,-99.99,,,0.00,weatherlink.com 1.10,2013-01-14 11:46:00,
2013-01-14 06:02:00,14.3,10.0,30.41,NNW,331,0.0,-999.0,83,-99.99,,,0.00,weatherlink.com 1.10,2013-01-14 12:02:00,
2013-01-14 06:16:00,14.2,10.0,30.42,NW,321,0.0,-999.0,83,-99.99,,,0.00,weatherlink.com 1.10,2013-01-14 12:16:00,
2013-01-14 06:31:00,14.2,10.0,30.43,NNW,332,0.0,-999.0,84,-99.99,,,0.00,weatherlink.com 1.10,2013-01-14 12:31:00,
2013-01-14 06:46:00,14.2,10.0,30.43,NW,314,0.0,-999.0,84,-99.99,,,0.00,weatherlink.com 1.10,2013-01-14 12:46:00,
2013-01-14 07:01:00,14.1,10.0,30.44,NW,315,0.0,-999.0,84,-99.99,,,0.00,weatherlink.com 1.10,2013-01-14 13:01:00,
2013-01-14 07:16:00,14.1,10.0,30.44,NW,310,0.0,-999.0,84,-99.99,,,0.00,weatherlink.com 1.10,2013-01-14 13:16:00,
2013-01-14 07:31:00,14.1,10.0,30.45,NW,315,0.0,-999.0,84,-99.99,,,0.00,weatherlink.com 1.10,2013-01-14 13:31:00,
2013-01-14 07:47:00,14.3,10.0,30.46,NNW,334,0.0,-999.0,84,-99.99,,,0.00,weatherlink.com 1.10,2013-01-14 13:47:00,
2013-01-14 08:01:00,14.6,10.0,30.46,NNW,327,0.0,-999.0,83,-99.99,,,0.00,weatherlink.com 1.10,2013-01-14 14:01:00,
2013-01-14 08:16:00,14.8,11.0,30.45,NNW,327,0.0,-999.0,83,-99.99,,,0.00,weatherlink.com 1.10,2013-01-14 14:16:00,
2013-01-14 08:31:00,15.2,11.0,30.45,North,355,0.0,-999.0,83,-99.99,,,0.00,weatherlink.com 1.10,2013-01-14 14:31:00,
2013-01-14 08:46:00,15.6,11.0,30.45,NE,38,0.0,-999.0,83,-99.99,,,0.00,weatherlink.com 1.10,2013-01-14 14:46:00,
2013-01-14 09:02:00,16.1,12.0,30.45,NNE,19,0.0,-999.0,82,-99.99,,,0.00,weatherlink.com 1.10,2013-01-14 15:02:00,
2013-01-14 09:17:00,16.5,12.0,30.45,North,350,0.0,-999.0,82,-99.99,,,0.00,weatherlink.com 1.10,2013-01-14 15:17:00,
2013-01-14 09:32:00,16.9,13.0,30.44,North,355,0.0,-999.0,83,-99.99,,,0.00,weatherlink.com 1.10,2013-01-14 15:32:00,
2013-01-14 09:47:00,17.1,13.0,30.45,NE,37,0.0,-999.0,82,-99.99,,,0.00,weatherlink.com 1.10,2013-01-14 15:47:00,
2013-01-14 10:01:00,17.7,13.0,30.45,NNE,24,0.0,-999.0,81,-99.99,,,0.00,weatherlink.com 1.10,2013-01-14 16:01:00,
2013-01-14 10:17:00,18.4,14.0,30.45,NNE,16,1.0,-999.0,82,-99.99,,,0.00,weatherlink.com 1.10,2013-01-14 16:17:00,
2013-01-14 10:32:00,18.7,14.0,30.46,NNE,26,0.0,-999.0,81,-99.99,,,0.00,weatherlink.com 1.10,2013-01-14 16:32:00,
2013-01-14 10:47:00,19.7,15.0,30.45,NNW,339,0.0,-999.0,81,-99.99,,,0.00,weatherlink.com 1.10,2013-01-14 16:47:00,
2013-01-14 11:01:00,19.8,15.0,30.46,NE,34,0.0,-999.0,80,-99.99,,,0.00,weatherlink.com 1.10,2013-01-14 17:01:00,
2013-01-14 11:16:00,20.5,15.0,30.46,NW,315,0.0,-999.0,80,-99.99,,,0.00,weatherlink.com 1.10,2013-01-14 17:16:00,
2013-01-14 11:31:00,20.9,15.0,30.46,NW,315,0.0,-999.0,78,-99.99,,,0.00,weatherlink.com 1.10,2013-01-14 17:31:00,
2013-01-14 11:47:00,21.3,15.0,30.46,NW,315,1.0,-999.0,77,-99.99,,,0.00,weatherlink.com 1.10,2013-01-14 17:47:00,
2013-01-14 12:02:00,21.5,15.0,30.45,NW,317,2.0,-999.0,77,-99.99,,,0.00,weatherlink.com 1.10,2013-01-14 18:02:00,
2013-01-14 12:17:00,21.8,16.0,30.46,NW,317,0.0,-999.0,77,-99.99,,,0.00,weatherlink.com 1.10,2013-01-14 18:17:00,
2013-01-14 12:32:00,21.7,16.0,30.45,NNW,327,0.0,-999.0,77,-99.99,,,0.00,weatherlink.com 1.10,2013-01-14 18:32:00,
2013-01-14 12:47:00,21.6,16.0,30.45,NW,305,0.0,-999.0,78,-99.99,,,0.00,weatherlink.com 1.10,2013-01-14 18:47:00,
2013-01-14 13:03:00,21.6,16.0,30.45,NNW,334,0.0,-999.0,78,-99.99,,,0.00,weatherlink.com 1.10,2013-01-14 19:03:00,
2013-01-14 13:18:00,21.6,16.0,30.44,NNW,342,0.0,-999.0,79,-99.99,,,0.00,weatherlink.com 1.10,2013-01-14 19:18:00,
2013-01-14 13:33:00,21.8,16.0,30.45,North,355,0.0,-999.0,79,-99.99,,,0.00,weatherlink.com 1.10,2013-01-14 19:33:00,
2013-01-14 13:48:00,21.7,16.0,30.46,NW,319,0.0,-999.0,79,-99.99,,,0.00,weatherlink.com 1.10,2013-01-14 19:48:00,
2013-01-14 14:02:00,21.8,16.0,30.48,NW,315,0.0,-999.0,79,-99.99,,,0.00,weatherlink.com 1.10,2013-01-14 20:02:00,
2013-01-14 14:17:00,21.9,16.0,30.47,WNW,293,2.0,-999.0,79,-99.99,,,0.00,weatherlink.com 1.10,2013-01-14 20:17:00,
2013-01-14 14:32:00,22.0,17.0,30.49,WNW,298,0.0,-999.0,80,-99.99,,,0.00,weatherlink.com 1.10,2013-01-14 20:32:00,
2013-01-14 14:47:00,22.5,17.0,30.50,WSW,252,0.0,-999.0,79,-99.99,,,0.00,weatherlink.com 1.10,2013-01-14 20:47:00,
2013-01-14 15:03:00,22.6,17.0,30.50,SW,233,0.0,-999.0,79,-99.99,,,0.00,weatherlink.com 1.10,2013-01-14 21:03:00,
2013-01-14 15:18:00,22.9,17.0,30.50,SW,233,0.0,-999.0,78,-99.99,,,0.00,weatherlink.com 1.10,2013-01-14 21:18:00,
2013-01-14 15:33:00,23.1,17.0,30.50,SW,234,0.0,-999.0,78,-99.99,,,0.00,weatherlink.com 1.10,2013-01-14 21:33:00,
2013-01-14 15:48:00,22.9,17.0,30.49,SW,234,0.0,-999.0,77,-99.99,,,0.00,weatherlink.com 1.10,2013-01-14 21:48:00,
2013-01-14 16:03:00,22.9,17.0,30.48,SW,234,0.0,-999.0,77,-99.99,,,0.00,weatherlink.com 1.10,2013-01-14 22:03:00,
2013-01-14 16:18:00,23.0,17.0,30.47,NNW,337,0.0,-999.0,76,-99.99,,,0.00,weatherlink.com 1.10,2013-01-14 22:18:00,
2013-01-14 16:33:00,22.8,17.0,30.46,NNW,337,0.0,-999.0,77,-99.99,,,0.00,weatherlink.com 1.10,2013-01-14 22:33:00,
2013-01-14 16:48:00,22.4,16.0,30.46,NNW,337,0.0,-999.0,77,-99.99,,,0.00,weatherlink.com 1.10,2013-01-14 22:48:00,
2013-01-14 17:02:00,22.1,16.0,30.46,NNW,337,0.0,-999.0,78,-99.99,,,0.00,weatherlink.com 1.10,2013-01-14 23:02:00,
2013-01-14 17:18:00,21.7,16.0,30.46,NNW,337,0.0,-999.0,79,-99.99,,,0.00,weatherlink.com 1.10,2013-01-14 23:18:00,
2013-01-14 17:33:00,21.3,16.0,30.47,NNW,337,0.0,-999.0,80,-99.99,,,0.00,weatherlink.com 1.10,2013-01-14 23:33:00,
2013-01-14 17:48:00,20.9,16.0,30.46,NNW,337,0.0,-999.0,81,-99.99,,,0.00,weatherlink.com 1.10,2013-01-14 23:48:00,
2013-01-14 18:03:00,20.6,16.0,30.46,NNW,337,0.0,-999.0,82,-99.99,,,0.00,weatherlink.com 1.10,2013-01-15 00:03:00,
2013-01-14 18:18:00,20.3,16.0,30.46,NNW,337,0.0,-999.0,83,-99.99,,,0.00,weatherlink.com 1.10,2013-01-15 00:18:00,
2013-01-14 18:33:00,20.1,16.0,30.46,NNW,337,0.0,-999.0,84,-99.99,,,0.00,weatherlink.com 1.10,2013-01-15 00:33:00,
2013-01-14 18:48:00,19.9,16.0,30.46,NNW,337,0.0,-999.0,84,-99.99,,,0.00,weatherlink.com 1.10,2013-01-15 00:48:00,
2013-01-14 19:03:00,19.7,16.0,30.46,NNW,337,0.0,-999.0,85,-99.99,,,0.00,weatherlink.com 1.10,2013-01-15 01:03:00,
2013-01-14 19:18:00,19.4,16.0,30.45,NNW,337,0.0,-999.0,85,-99.99,,,0.00,weatherlink.com 1.10,2013-01-15 01:18:00,
2013-01-14 19:33:00,19.2,15.0,30.45,NNW,337,0.0,-999.0,85,-99.99,,,0.00,weatherlink.com 1.10,2013-01-15 01:33:00,
2013-01-14 19:48:00,19.0,15.0,30.45,NNW,337,0.0,-999.0,85,-99.99,,,0.00,weatherlink.com 1.10,2013-01-15 01:48:00,
2013-01-14 20:03:00,18.9,15.0,30.45,NNW,337,0.0,-999.0,86,-99.99,,,0.00,weatherlink.com 1.10,2013-01-15 02:03:00,
2013-01-14 20:18:00,18.8,15.0,30.44,NNW,337,0.0,-999.0,86,-99.99,,,0.00,weatherlink.com 1.10,2013-01-15 02:18:00,
2013-01-14 20:33:00,18.6,15.0,30.44,NNW,337,0.0,-999.0,86,-99.99,,,0.00,weatherlink.com 1.10,2013-01-15 02:33:00,
2013-01-14 20:48:00,18.5,15.0,30.44,NNW,337,0.0,-999.0,86,-99.99,,,0.00,weatherlink.com 1.10,2013-01-15 02:48:00,
2013-01-14 21:02:00,18.3,15.0,30.44,NNW,343,0.0,-999.0,86,-99.99,,,0.00,weatherlink.com 1.10,2013-01-15 03:02:00,
2013-01-14 21:18:00,18.2,15.0,30.44,NNW,343,0.0,-999.0,86,-99.99,,,0.00,weatherlink.com 1.10,2013-01-15 03:18:00,
2013-01-14 21:32:00,18.1,15.0,30.44,NNW,343,0.0,-999.0,86,-99.99,,,0.00,weatherlink.com 1.10,2013-01-15 03:32:00,
2013-01-14 21:47:00,17.8,14.0,30.44,NNW,343,0.0,-999.0,86,-99.99,,,0.00,weatherlink.com 1.10,2013-01-15 03:47:00,
2013-01-14 22:03:00,17.5,14.0,30.44,NNW,343,0.0,-999.0,86,-99.99,,,0.00,weatherlink.com 1.10,2013-01-15 04:03:00,
2013-01-14 22:18:00,17.5,14.0,30.43,NNW,343,0.0,-999.0,87,-99.99,,,0.00,weatherlink.com 1.10,2013-01-15 04:18:00,
2013-01-14 22:33:00,17.6,14.0,30.44,NNW,343,0.0,-999.0,87,-99.99,,,0.00,weatherlink.com 1.10,2013-01-15 04:33:00,
2013-01-14 22:48:00,17.5,14.0,30.44,NNW,343,0.0,-999.0,87,-99.99,,,0.00,weatherlink.com 1.10,2013-01-15 04:48:00,
2013-01-14 23:03:00,17.3,14.0,30.45,NNW,343,0.0,-999.0,87,-99.99,,,0.00,weatherlink.com 1.10,2013-01-15 05:03:00,
2013-01-14 23:18:00,17.0,14.0,30.45,NNW,343,0.0,-999.0,87,-99.99,,,0.00,weatherlink.com 1.10,2013-01-15 05:18:00,
2013-01-14 23:33:00,17.0,14.0,30.45,NNW,343,0.0,-999.0,88,-99.99,,,0.00,weatherlink.com 1.10,2013-01-15 05:33:00,
2013-01-14 23:48:00,16.8,14.0,30.45,NNW,343,0.0,-999.0,87,-99.99,,,0.00,weatherlink.com 1.10,2013-01-15 05:48:00,